Zurück zum Katalog

THORAD AGENA D DEB

AktivSSO
NORAD 4774·DEBRIS·🇺🇸 United States

Gestartet Apr 8, 1970 von Vandenberg Space Force Base

Loading…

Nächste Überflüge

TLE

Source: Space-Track
1 04774U 70025DU  26228.37495353  .00000535  00000-0  53335-3 0  9990
2 04774  99.7563   5.4376 0040229 304.3573  79.4682 13.82712467798933

Verfolge THORAD AGENA D DEB in Echtzeit mit AllMySat

Download on the App Store